Flag for Norway

Past Weather in Tromsø, Norway — Yesterday and Last 2 Weeks

Now
59 °F

Cool.


Feels Like: 59 °F
Forecast: 62 / 52 °F
Wind: 5 mph from North

Location: Tromso / Langnes

Current Time: Jul 14, 2020 at 11:26:06 am

Latest Report: Jul 14, 2020 at 10:00 am


Visibility: N/A

Pressure: 30.01 "Hg

Humidity: 66%

Dew Point: 48 °F

Location of TromsøLocation

Past Weather in Tromsø — Graph

°F

Tromsø Temperature Yesterday

Maximum temperature yesterday: 60 °F (at 2:00 pm)
Minimum temperature yesterday: 50 °F (at 1:00 am)
Average temperature yesterday: 54 °F

High & Low Weather Summary for the Past Weeks

 TemperatureHumidityPressure
High62 °F (Jul 11, 5:00 pm)95% (Jul 7, 4:00 am)30.07 "Hg (Jul 7, 4:00 am)
Low41 °F (Jul 5, 4:00 am)49% (Jul 11, 2:00 pm)29.21 "Hg (Jul 1, 6:00 am)
Average50 °F76%29.62 "Hg
* Reported Jun 29 10:00 am — Jul 14 10:00 am, Tromsø. Weather by CustomWeather, © 2020

Note: Actual official high and low records may vary slightly from our data, if they occured in-between our weather recording intervals... More about our weather records

Tromsø Weather History for the Previous 24 Hours

Scroll right to see more
 ConditionsComfort  
Time TempWeatherWind HumidityBarometerVisibility
10:00 am
Tue, Jul 14
59 °FCool.5 mph66%30.01 "HgN/A
9:00 am57 °FSunny.1 mph76%30.01 "Hg22 mi
8:00 am55 °FSunny.1 mph79%30.02 "Hg22 mi
7:00 am53 °FPartly sunny.2 mph86%30.02 "Hg19 mi
6:00 am54 °FPassing clouds.2 mph83%30.02 "Hg22 mi
5:00 am53 °FOvercast.1 mph85%30.02 "Hg22 mi
4:00 am52 °FOvercast.2 mph85%30.03 "Hg25 mi
3:00 am52 °FOvercast.2 mph83%30.03 "Hg31 mi
2:00 am53 °FOvercast.2 mph80%30.03 "Hg31 mi
1:00 am53 °FPartly sunny.3 mph78%30.03 "Hg31 mi
12:00 am53 °FPartly sunny.1 mph79%30.03 "Hg31 mi
11:00 pm
Mon, Jul 13
53 °FOvercast.5 mph80%30.03 "Hg31 mi
10:00 pm53 °FScattered clouds.6 mph80%30.04 "Hg31 mi
9:00 pm53 °FOvercast.8 mph81%30.04 "Hg25 mi
8:00 pm55 °FOvercast.7 mph77%30.04 "Hg25 mi
7:00 pm55 °FScattered clouds.9 mph77%30.04 "Hg28 mi
6:00 pm60 °FLight rain. Overcast.5 mph67%30.05 "Hg25 mi
5:00 pm60 °FOvercast.6 mph67%30.05 "Hg22 mi
4:00 pm60 °FScattered clouds.6 mph62%30.05 "Hg22 mi
2:00 pm60 °FSunny.3 mph62%30.06 "Hg17 mi
1:00 pm59 °FSunny.6 mph65%30.06 "Hg25 mi
12:00 pm58 °FPassing clouds.3 mph64%30.07 "Hg19 mi
11:00 am57 °FCool.5 mph70%30.07 "HgN/A
Weather by CustomWeather, © 2020

See weather overview